| time (UTC) | temp F | wind direction | speed knots | gust knots | rain 1hr in | rain 24hr in | rain mn in | humidity % | barometer mb |
| 20260505230922 | 48 | 6 | 2.6 | 6.1 | 0.00 | 0.00 | 0.38 | 87 | 1012.5 |
| 20260505230424 | 47 | 82 | 0.9 | 6.1 | 0.00 | 0.00 | 0.38 | 87 | 1012.5 |
| 20260505225439 | 48 | 340 | 4.3 | 7.8 | 0.00 | 0.00 | 0.38 | 85 | 1012.2 |
| 20260505224923 | 48 | 45 | 2.6 | 9.6 | 0.00 | 0.00 | 0.38 | 85 | 1012.2 |
| 20260505224423 | 48 | 74 | 4.3 | 7.8 | 0.00 | 0.00 | 0.38 | 84 | 1012.2 |
| 20260505223922 | 48 | 353 | 1.7 | 4.3 | 0.00 | 0.00 | 0.38 | 83 | 1012.5 |
| 20260505223423 | 48 | 86 | 4.3 | 7.8 | 0.00 | 0.00 | 0.38 | 83 | 1012.2 |
| 20260505222922 | 48 | 290 | 3.5 | 7.0 | 0.00 | 0.00 | 0.38 | 84 | 1012.2 |
| 20260505222424 | 48 | 66 | 2.6 | 7.0 | 0.00 | 0.00 | 0.38 | 85 | 1012.5 |
| 20260505221922 | 48 | 45 | 6.1 | 6.1 | 0.00 | 0.00 | 0.38 | 85 | 1012.5 |
| 20260505221423 | 48 | 258 | 0.9 | 3.5 | 0.00 | 0.00 | 0.38 | 85 | 1012.5 |
| 20260505220925 | 48 | 40 | 3.5 | 11.3 | 0.00 | 0.00 | 0.37 | 85 | 1012.5 |
| 20260505220422 | 48 | 63 | 3.5 | 9.6 | 0.00 | 0.00 | 0.37 | 84 | 1012.2 |
| 20260505215922 | 48 | 1 | 5.2 | 11.3 | 0.00 | 0.00 | 0.37 | 84 | 1012.2 |
| 20260505215423 | 48 | 32 | 5.2 | 8.7 | 0.00 | 0.00 | 0.37 | 82 | 1012.2 |
| 20260505214925 | 48 | 309 | 7.0 | 7.8 | 0.00 | 0.00 | 0.37 | 82 | 1012.5 |
| 20260505214424 | 48 | 308 | 4.3 | 5.2 | 0.00 | 0.00 | 0.37 | 83 | 1012.9 |
| 20260505213922 | 49 | 325 | 2.6 | 4.3 | 0.00 | 0.00 | 0.37 | 82 | 1012.5 |
| 20260505213422 | 49 | 26 | 3.5 | 6.1 | 0.00 | 0.00 | 0.37 | 80 | 1012.2 |
| 20260505212925 | 49 | 118 | 1.7 | 7.0 | 0.00 | 0.00 | 0.37 | 79 | 1011.9 |
| 20260505212423 | 49 | 60 | 3.5 | 6.1 | 0.01 | 0.00 | 0.37 | 78 | 1011.9 |
| 20260505211922 | 49 | 346 | 1.7 | 7.8 | 0.01 | 0.00 | 0.37 | 78 | 1012.2 |
| 20260505211424 | 49 | 0 | 1.7 | 4.3 | 0.01 | 0.00 | 0.37 | 78 | 1011.9 |
| 20260505210924 | 49 | 70 | 1.7 | 2.6 | 0.01 | 0.00 | 0.37 | 79 | 1011.9 |
| 20260505210425 | 49 | 224 | 1.7 | 5.2 | 0.01 | 0.00 | 0.37 | 78 | 1012.2 |
| 20260505205923 | 49 | 355 | 5.2 | 7.0 | 0.01 | 0.00 | 0.37 | 78 | 1012.2 |
| 20260505205424 | 49 | 349 | 0.0 | 4.3 | 0.01 | 0.00 | 0.37 | 78 | 1012.2 |
| 20260505204925 | 50 | 346 | 7.0 | 7.8 | 0.01 | 0.00 | 0.37 | 79 | 1012.2 |
| 20260505204422 | 50 | 161 | 5.2 | 8.7 | 0.01 | 0.00 | 0.37 | 81 | 1011.9 |
| 20260505203926 | 49 | 19 | 2.6 | 5.2 | 0.01 | 0.00 | 0.37 | 81 | 1011.9 |
| 20260505203424 | 49 | 79 | 2.6 | 5.2 | 0.01 | 0.00 | 0.37 | 81 | 1011.9 |
| 20260505202924 | 49 | 42 | 2.6 | 7.0 | 0.01 | 0.00 | 0.37 | 80 | 1011.9 |
| 20260505202426 | 50 | 107 | 1.7 | 7.8 | 0.01 | 0.00 | 0.37 | 82 | 1011.9 |
| 20260505201922 | 50 | 55 | 3.5 | 5.2 | 0.00 | 0.00 | 0.37 | 79 | 1011.9 |
| 20260505201422 | 50 | 83 | 1.7 | 7.0 | 0.00 | 0.00 | 0.36 | 79 | 1012.2 |
| 20260505200924 | 50 | 72 | 4.3 | 5.2 | 0.01 | 0.00 | 0.36 | 78 | 1011.9 |
| 20260505200425 | 50 | 41 | 2.6 | 5.2 | 0.01 | 0.00 | 0.36 | 79 | 1012.2 |
| 20260505195922 | 50 | 262 | 3.5 | 4.3 | 0.01 | 0.00 | 0.36 | 79 | 1011.9 |
| 20260505195426 | 50 | 81 | 1.7 | 8.7 | 0.01 | 0.00 | 0.36 | 79 | 1011.9 |
| 20260505194924 | 50 | 56 | 1.7 | 7.8 | 0.01 | 0.00 | 0.36 | 79 | 1011.5 |
| 20260505194425 | 50 | 75 | 2.6 | 11.3 | 0.01 | 0.00 | 0.36 | 80 | 1011.5 |
| 20260505193926 | 50 | 30 | 3.5 | 7.8 | 0.01 | 0.00 | 0.36 | 81 | 1011.5 |
| 20260505193422 | 50 | 266 | 0.9 | 5.2 | 0.01 | 0.00 | 0.36 | 83 | 1011.5 |
| 20260505192924 | 50 | 339 | 1.7 | 6.1 | 0.01 | 0.00 | 0.36 | 83 | 1011.5 |
| 20260505192425 | 50 | 65 | 1.7 | 7.0 | 0.01 | 0.00 | 0.36 | 85 | 1011.5 |
| 20260505191924 | 50 | 70 | 4.3 | 9.6 | 0.01 | 0.00 | 0.36 | 87 | 1011.5 |
| 20260505191425 | 50 | 106 | 2.6 | 6.1 | 0.00 | 0.00 | 0.36 | 88 | 1011.9 |
| 20260505190925 | 50 | 26 | 0.0 | 4.3 | 0.00 | 0.00 | 0.36 | 87 | 1011.9 |
| 20260505190424 | 50 | 75 | 1.7 | 4.3 | 0.00 | 0.00 | 0.35 | 86 | 1011.9 |
| 20260505185924 | 50 | 24 | 3.5 | 7.8 | 0.00 | 0.00 | 0.35 | 87 | 1011.5 |
| 20260505185424 | 50 | 231 | 2.6 | 7.0 | 0.00 | 0.00 | 0.35 | 86 | 1011.5 |
| 20260505184924 | 50 | 100 | 1.7 | 7.0 | 0.00 | 0.00 | 0.35 | 86 | 1011.9 |
| 20260505184425 | 51 | 28 | 2.6 | 7.8 | 0.00 | 0.00 | 0.35 | 85 | 1011.2 |
| 20260505183925 | 51 | 162 | 3.5 | 8.7 | 0.00 | 0.00 | 0.35 | 84 | 1011.5 |
| 20260505183423 | 51 | 352 | 5.2 | 5.2 | 0.00 | 0.00 | 0.35 | 85 | 1011.2 |
| 20260505182922 | 51 | 117 | 0.9 | 7.0 | 0.00 | 0.00 | 0.35 | 84 | 1011.2 |
| 20260505182425 | 51 | 333 | 3.5 | 7.0 | 0.00 | 0.00 | 0.35 | 84 | 1011.5 |
| 20260505181924 | 51 | 357 | 1.7 | 4.3 | 0.00 | 0.00 | 0.35 | 83 | 1011.5 |
| 20260505181427 | 52 | 125 | 1.7 | 7.8 | 0.00 | 0.00 | 0.35 | 84 | 1011.2 |
| 20260505180924 | 52 | 108 | 2.6 | 7.8 | 0.00 | 0.00 | 0.35 | 84 | 1011.2 |
| 20260505180425 | 52 | 314 | 2.6 | 5.2 | 0.00 | 0.00 | 0.35 | 84 | 1011.2 |
| 20260505175924 | 52 | 37 | 0.9 | 7.8 | 0.00 | 0.00 | 0.35 | 83 | 1011.2 |
| 20260505175424 | 53 | 292 | 1.7 | 9.6 | 0.00 | 0.00 | 0.35 | 81 | 1010.8 |
| 20260505174924 | 53 | 18 | 0.9 | 4.3 | 0.00 | 0.00 | 0.35 | 82 | 1010.8 |
| 20260505174422 | 53 | 21 | 6.1 | 6.1 | 0.00 | 0.00 | 0.35 | 81 | 1010.5 |
| 20260505173922 | 53 | 347 | 4.3 | 7.8 | 0.00 | 0.00 | 0.35 | 81 | 1010.5 |
| 20260505173424 | 53 | 17 | 4.3 | 11.3 | 0.00 | 0.00 | 0.35 | 79 | 1010.8 |
| 20260505172926 | 53 | 71 | 0.9 | 5.2 | 0.00 | 0.00 | 0.35 | 79 | 1010.8 |
| 20260505172422 | 53 | 256 | 2.6 | 9.6 | 0.00 | 0.00 | 0.35 | 79 | 1010.5 |
| 20260505171926 | 53 | 81 | 4.3 | 7.0 | 0.00 | 0.00 | 0.35 | 78 | 1010.8 |
| 20260505171422 | 54 | 86 | 5.2 | 9.6 | 0.00 | 0.00 | 0.35 | 77 | 1010.8 |
| 20260505170924 | 54 | 74 | 2.6 | 6.1 | 0.00 | 0.00 | 0.35 | 77 | 1010.8 |
| 20260505170425 | 54 | 357 | 2.6 | 5.2 | 0.00 | 0.00 | 0.35 | 77 | 1010.8 |
| 20260505165926 | 54 | 88 | 2.6 | 4.3 | 0.00 | 0.00 | 0.35 | 79 | 1010.5 |
| 20260505165424 | 54 | 53 | 3.5 | 9.6 | 0.00 | 0.00 | 0.35 | 77 | 1010.5 |
| 20260505164924 | 54 | 94 | 2.6 | 3.5 | 0.00 | 0.00 | 0.35 | 77 | 1010.5 |
| 20260505164424 | 54 | 353 | 0.9 | 3.5 | 0.00 | 0.00 | 0.35 | 78 | 1010.5 |
| 20260505163924 | 54 | 17 | 4.3 | 7.8 | 0.00 | 0.00 | 0.35 | 79 | 1010.5 |
| 20260505163424 | 54 | 71 | 2.6 | 7.0 | 0.00 | 0.00 | 0.35 | 77 | 1010.5 |
| 20260505162924 | 54 | 40 | 3.5 | 8.7 | 0.00 | 0.00 | 0.35 | 78 | 1010.5 |
| 20260505162424 | 54 | 87 | 2.6 | 10.4 | 0.00 | 0.00 | 0.35 | 77 | 1010.5 |
| 20260505161926 | 54 | 20 | 4.3 | 5.2 | 0.00 | 0.00 | 0.35 | 79 | 1010.8 |
| 20260505161426 | 54 | 346 | 2.6 | 6.1 | 0.00 | 0.00 | 0.35 | 79 | 1010.5 |
| 20260505160925 | 55 | 67 | 3.5 | 10.4 | 0.00 | 0.00 | 0.35 | 79 | 1010.2 |
| 20260505160424 | 54 | 70 | 2.6 | 8.7 | 0.00 | 0.00 | 0.35 | 80 | 1010.2 |
| 20260505152924 | 54 | 353 | 4.3 | 7.0 | 0.00 | 0.00 | 0.35 | 83 | 1011.2 |
| 20260505152425 | 54 | 56 | 2.6 | 9.6 | 0.00 | 0.00 | 0.35 | 83 | 1011.2 |
| 20260505151925 | 54 | 350 | 1.7 | 5.2 | 0.00 | 0.00 | 0.35 | 83 | 1010.8 |
| 20260505151425 | 55 | 108 | 2.6 | 7.0 | 0.00 | 0.00 | 0.35 | 82 | 1010.8 |
| 20260505150924 | 55 | 106 | 2.6 | 6.1 | 0.00 | 0.00 | 0.35 | 80 | 1010.2 |
| 20260505150424 | 56 | 83 | 3.5 | 6.1 | 0.00 | 0.00 | 0.35 | 81 | 1009.8 |
| 20260505140424 | 54 | 95 | 1.7 | 2.6 | 0.00 | 0.00 | 0.35 | 84 | 1009.5 |
| 20260505124924 | 55 | 103 | 2.6 | 5.2 | 0.00 | 0.00 | 0.35 | 89 | 1009.1 |
| 20260505124424 | 55 | 25 | 6.1 | 8.7 | 0.00 | 0.00 | 0.35 | 89 | 1009.1 |
| 20260505123925 | 55 | 52 | 4.3 | 6.1 | 0.00 | 0.00 | 0.35 | 90 | 1009.1 |
| 20260505123424 | 55 | 71 | 2.6 | 4.3 | 0.00 | 0.00 | 0.35 | 90 | 1008.8 |
| 20260505122924 | 55 | 355 | 2.6 | 5.2 | 0.00 | 0.00 | 0.35 | 91 | 1008.8 |
| 20260505122425 | 55 | 24 | 1.7 | 3.5 | 0.00 | 0.00 | 0.35 | 91 | 1008.8 |
| 20260505121924 | 55 | 103 | 0.0 | 4.3 | 0.00 | 0.00 | 0.35 | 91 | 1008.8 |
| 20260505121424 | 55 | 0 | 1.7 | 3.5 | 0.00 | 0.00 | 0.35 | 91 | 1009.1 |
| 20260505120925 | 55 | 168 | 1.7 | 3.5 | 0.00 | 0.00 | 0.35 | 92 | 1008.8 |
| 20260505120424 | 55 | 20 | 1.7 | 4.3 | 0.00 | 0.00 | 0.35 | 91 | 1008.5 |
| 20260505115924 | 55 | 64 | 2.6 | 4.3 | 0.00 | 0.00 | 0.35 | 91 | 1008.1 |
| 20260505115424 | 55 | 20 | 1.7 | 6.1 | 0.00 | 0.00 | 0.35 | 90 | 1008.1 |
| 20260505114924 | 56 | 47 | 2.6 | 6.1 | 0.00 | 0.00 | 0.35 | 90 | 1007.8 |
| 20260505114422 | 56 | 58 | 2.6 | 4.3 | 0.00 | 0.00 | 0.35 | 90 | 1008.1 |
| 20260505113925 | 56 | 73 | 1.7 | 5.2 | 0.00 | 0.00 | 0.35 | 90 | 1007.8 |
| 20260505113422 | 57 | 33 | 2.6 | 3.5 | 0.00 | 0.00 | 0.35 | 91 | 1008.1 |
| 20260505112925 | 57 | 337 | 0.9 | 5.2 | 0.00 | 0.00 | 0.35 | 91 | 1008.1 |
| 20260505112422 | 57 | 66 | 1.7 | 4.3 | 0.00 | 0.00 | 0.35 | 91 | 1008.1 |
| 20260505111924 | 58 | 38 | 2.6 | 4.3 | 0.00 | 0.00 | 0.35 | 92 | 1008.1 |
| 20260505111422 | 58 | 322 | 2.6 | 3.5 | 0.00 | 0.00 | 0.35 | 92 | 1008.1 |
| 20260505110925 | 58 | 193 | 2.6 | 3.5 | 0.00 | 0.00 | 0.35 | 92 | 1007.8 |
| 20260505110424 | 58 | 6 | 3.5 | 3.5 | 0.00 | 0.00 | 0.35 | 92 | 1007.8 |
| 20260505101922 | 61 | 295 | 0.9 | 3.5 | 0.02 | 0.00 | 0.35 | 91 | 1007.8 |
| 20260505101423 | 61 | 318 | 6.1 | 6.1 | 0.02 | 0.00 | 0.35 | 92 | 1007.8 |
| 20260505100925 | 61 | 31 | 1.7 | 4.3 | 0.02 | 0.00 | 0.35 | 91 | 1007.5 |
| 20260505100422 | 61 | 70 | 0.9 | 2.6 | 0.02 | 0.00 | 0.35 | 91 | 1007.1 |
| 20260505095922 | 61 | 39 | 0.0 | 2.6 | 0.02 | 0.00 | 0.35 | 91 | 1006.8 |
| 20260505095424 | 62 | 82 | 1.7 | 4.3 | 0.02 | 0.00 | 0.35 | 90 | 1007.5 |
| 20260505094922 | 62 | 63 | 0.0 | 6.1 | 0.02 | 0.00 | 0.35 | 88 | 1007.5 |
| 20260505094424 | 62 | 336 | 7.0 | 9.6 | 0.02 | 0.00 | 0.35 | 88 | 1007.8 |
| 20260505093922 | 62 | 323 | 6.1 | 8.7 | 0.01 | 0.00 | 0.35 | 89 | 1007.5 |
| 20260505093423 | 62 | 8 | 1.7 | 10.4 | 0.00 | 0.00 | 0.34 | 89 | 1008.1 |
| 20260505092922 | 62 | 346 | 11.3 | 13.9 | 0.00 | 0.00 | 0.34 | 87 | 1007.8 |
| 20260505092423 | 61 | 338 | 3.5 | 5.2 | 0.00 | 0.00 | 0.33 | 88 | 1007.1 |
| 20260505091922 | 62 | 285 | 2.6 | 2.6 | 0.00 | 0.00 | 0.33 | 88 | 1006.4 |
| 20260505091423 | 62 | 208 | 1.7 | 3.5 | 0.00 | 0.00 | 0.33 | 87 | 1006.1 |
| 20260505090922 | 62 | 189 | 2.6 | 2.6 | 0.00 | 0.00 | 0.33 | 87 | 1006.1 |
| 20260505090422 | 62 | 203 | 2.6 | 2.6 | 0.00 | 0.00 | 0.33 | 88 | 1006.1 |
| 20260505085922 | 61 | 150 | 0.0 | 3.5 | 0.01 | 0.00 | 0.33 | 89 | 1005.4 |
| 20260505085423 | 61 | 241 | 0.9 | 4.3 | 0.01 | 0.00 | 0.33 | 90 | 1005.8 |
| 20260505084922 | 62 | 239 | 0.0 | 2.6 | 0.04 | 0.00 | 0.33 | 91 | 1005.1 |
| 20260505084422 | 62 | 196 | 0.9 | 1.7 | 0.07 | 0.00 | 0.33 | 91 | 1005.1 |
| 20260505083925 | 62 | 295 | 4.3 | 4.3 | 0.10 | 0.00 | 0.33 | 91 | 1005.1 |
| 20260505083422 | 62 | 285 | 3.5 | 5.2 | 0.14 | 0.00 | 0.33 | 92 | 1004.7 |
| 20260505082924 | 62 | 159 | 4.3 | 9.6 | 0.17 | 0.00 | 0.33 | 92 | 1004.1 |
| 20260505082422 | 62 | 160 | 5.2 | 13.9 | 0.20 | 0.00 | 0.33 | 93 | 1004.1 |
| 20260505081922 | 61 | 180 | 8.7 | 13.9 | 0.23 | 0.00 | 0.33 | 93 | 1004.4 |
| 20260505081422 | 61 | 165 | 18.2 | 19.1 | 0.25 | 0.00 | 0.33 | 94 | 1004.7 |
| 20260505080923 | 61 | 182 | 7.0 | 11.3 | 0.26 | 0.00 | 0.33 | 93 | 1005.8 |
| 20260505080422 | 62 | 167 | 7.0 | 13.9 | 0.27 | 0.00 | 0.33 | 93 | 1006.1 |
| 20260505075923 | 62 | 170 | 7.0 | 11.3 | 0.28 | 0.00 | 0.33 | 93 | 1006.4 |
| 20260505075422 | 62 | 150 | 5.2 | 7.8 | 0.28 | 0.00 | 0.32 | 93 | 1007.1 |
| 20260505074922 | 62 | 268 | 3.5 | 5.2 | 0.26 | 0.00 | 0.32 | 92 | 1007.8 |
| 20260505074422 | 62 | 271 | 2.6 | 7.8 | 0.23 | 0.00 | 0.29 | 92 | 1007.8 |
| 20260505073923 | 62 | 264 | 7.0 | 11.3 | 0.20 | 0.00 | 0.25 | 91 | 1008.1 |
| 20260505073423 | 62 | 252 | 8.7 | 16.5 | 0.17 | 0.00 | 0.22 | 91 | 1007.8 |
| 20260505072922 | 62 | 232 | 7.0 | 12.2 | 0.13 | 0.00 | 0.18 | 89 | 1007.8 |
| 20260505072423 | 62 | 246 | 7.8 | 11.3 | 0.11 | 0.00 | 0.15 | 88 | 1007.5 |
| 20260505071922 | 63 | 197 | 3.5 | 13.0 | 0.09 | 0.00 | 0.11 | 87 | 1007.5 |
| 20260505071423 | 63 | 185 | 7.0 | 11.3 | 0.06 | 0.00 | 0.09 | 85 | 1007.5 |
| 20260505070922 | 64 | 227 | 4.3 | 7.8 | 0.05 | 0.00 | 0.07 | 83 | 1007.5 |
| 20260505070422 | 64 | 186 | 11.3 | 12.2 | 0.03 | 0.00 | 0.05 | 81 | 1007.5 |
| 20260505065923 | 65 | 199 | 7.8 | 13.9 | 0.02 | 0.00 | 0.04 | 79 | 1007.1 |
| 20260505065422 | 66 | 178 | 7.0 | 10.4 | 0.01 | 0.00 | 0.02 | 75 | 1006.8 |
| 20260505064923 | 66 | 236 | 5.2 | 12.2 | 0.01 | 0.00 | 0.01 | 73 | 1006.8 |
| 20260505064422 | 66 | 184 | 4.3 | 7.8 | 0.00 | 0.00 | 0.01 | 72 | 1006.4 |
| 20260505063922 | 67 | 202 | 7.0 | 7.8 | 0.00 | 0.00 | 0.00 | 70 | 1006.1 |
| 20260505063422 | 67 | 172 | 4.3 | 8.7 | 0.00 | 0.00 | 0.00 | 70 | 1006.1 |
| 20260505062923 | 67 | 123 | 1.7 | 4.3 | 0.00 | 0.00 | 0.00 | 69 | 1005.8 |
| 20260505062422 | 67 | 85 | 1.7 | 5.2 | 0.00 | 0.00 | 0.00 | 69 | 1006.1 |
| 20260505061922 | 67 | 167 | 6.1 | 7.0 | 0.00 | 0.00 | 0.00 | 68 | 1006.1 |
| 20260505061424 | 67 | 218 | 3.5 | 7.0 | 0.00 | 0.00 | 0.00 | 69 | 1006.1 |
| 20260505060922 | 67 | 179 | 3.5 | 8.7 | 0.00 | 0.00 | 0.00 | 69 | 1006.1 |
| 20260505060423 | 67 | 171 | 5.2 | 8.7 | 0.00 | 0.00 | 0.00 | 69 | 1006.4 |
| 20260505055923 | 66 | 165 | 3.5 | 5.2 | 0.00 | 0.00 | 0.00 | 69 | 1006.1 |
| 20260505055422 | 66 | 166 | 5.2 | 6.1 | 0.00 | 0.00 | 0.00 | 69 | 1006.1 |
| 20260505054922 | 66 | 182 | 5.2 | 6.1 | 0.00 | 0.00 | 0.00 | 69 | 1006.1 |
| 20260505054422 | 67 | 161 | 3.5 | 4.3 | 0.00 | 0.00 | 0.00 | 69 | 1006.1 |
| 20260505053922 | 67 | 156 | 4.3 | 7.8 | 0.00 | 0.00 | 0.00 | 69 | 1006.1 |
| 20260505053423 | 67 | 173 | 4.3 | 6.1 | 0.00 | 0.00 | 0.00 | 69 | 1006.4 |
| 20260505052922 | 66 | 150 | 7.0 | 8.7 | 0.00 | 0.00 | 0.00 | 69 | 1006.4 |
| 20260505052422 | 66 | 143 | 1.7 | 6.1 | 0.00 | 0.00 | 0.00 | 69 | 1006.8 |
| 20260505051923 | 66 | 149 | 3.5 | 7.8 | 0.00 | 0.00 | 0.00 | 70 | 1006.4 |
| 20260505051422 | 66 | 169 | 3.5 | 6.1 | 0.00 | 0.00 | 0.00 | 69 | 1006.1 |
| 20260505050923 | 66 | 177 | 5.2 | 6.1 | 0.00 | 0.00 | 0.00 | 69 | 1006.1 |
| 20260505050423 | 67 | 167 | 4.3 | 7.0 | 0.00 | 0.00 | 0.00 | 69 | 1006.1 |
| 20260505041422 | 67 | 164 | 3.5 | 6.1 | 0.00 | 0.00 | 0.00 | 68 | 1006.8 |
| 20260505040923 | 67 | 159 | 2.6 | 5.2 | 0.00 | 0.00 | 0.00 | 67 | 1006.8 |
| 20260505040422 | 67 | 147 | 1.7 | 6.1 | 0.00 | 0.00 | 0.00 | 67 | 1006.8 |
| 20260505035923 | 67 | 174 | 2.6 | 6.1 | 0.00 | 0.00 | 0.00 | 67 | 1006.8 |
| 20260505035422 | 67 | 176 | 3.5 | 4.3 | 0.00 | 0.00 | 0.00 | 67 | 1006.8 |
| 20260505034923 | 67 | 167 | 4.3 | 6.1 | 0.00 | 0.00 | 0.00 | 67 | 1006.8 |
| 20260505034422 | 67 | 182 | 3.5 | 5.2 | 0.00 | 0.00 | 0.00 | 68 | 1007.1 |
| 20260505033922 | 67 | 181 | 3.5 | 4.3 | 0.00 | 0.00 | 0.00 | 68 | 1007.1 |
| 20260505033422 | 67 | 166 | 4.3 | 5.2 | 0.00 | 0.00 | 0.00 | 68 | 1007.1 |
| 20260505032922 | 68 | 182 | 1.7 | 3.5 | 0.00 | 0.00 | 0.00 | 68 | 1007.1 |
| 20260505032422 | 68 | 183 | 1.7 | 3.5 | 0.00 | 0.00 | 0.00 | 67 | 1007.5 |
| 20260505031923 | 68 | 185 | 2.6 | 2.6 | 0.00 | 0.00 | 0.00 | 67 | 1007.1 |
| 20260505031422 | 68 | 166 | 2.6 | 2.6 | 0.00 | 0.00 | 0.00 | 66 | 1007.1 |
| 20260505030922 | 69 | 164 | 1.7 | 2.6 | 0.00 | 0.00 | 0.00 | 65 | 1007.1 |
| 20260505030422 | 69 | 177 | 2.6 | 2.6 | 0.00 | 0.00 | 0.00 | 64 | 1007.5 |
| 20260505025921 | 69 | 176 | 1.7 | 4.3 | 0.00 | 0.00 | 0.00 | 64 | 1007.1 |
| 20260505025422 | 69 | 187 | 0.0 | 3.5 | 0.00 | 0.00 | 0.00 | 63 | 1007.1 |
| 20260505024922 | 70 | 182 | 2.6 | 4.3 | 0.00 | 0.00 | 0.00 | 63 | 1007.1 |
| 20260505024423 | 70 | 161 | 3.5 | 4.3 | 0.00 | 0.00 | 0.00 | 63 | 1006.8 |
| 20260505023922 | 70 | 157 | 0.0 | 3.5 | 0.00 | 0.00 | 0.00 | 63 | 1006.8 |
| 20260505023423 | 70 | 208 | 3.5 | 5.2 | 0.00 | 0.00 | 0.00 | 62 | 1006.8 |
| 20260505022922 | 70 | 211 | 2.6 | 6.1 | 0.00 | 0.00 | 0.00 | 62 | 1006.8 |
| 20260505022422 | 70 | 247 | 0.9 | 6.1 | 0.00 | 0.00 | 0.00 | 62 | 1006.4 |
| 20260505021922 | 71 | 223 | 1.7 | 5.2 | 0.00 | 0.00 | 0.00 | 62 | 1006.8 |
| 20260505021422 | 71 | 197 | 4.3 | 5.2 | 0.00 | 0.00 | 0.00 | 61 | 1006.4 |
| 20260505020922 | 71 | 203 | 2.6 | 6.1 | 0.00 | 0.00 | 0.00 | 61 | 1006.4 |
| 20260505020422 | 71 | 232 | 5.2 | 8.7 | 0.00 | 0.00 | 0.00 | 61 | 1006.4 |
| 20260505015922 | 71 | 176 | 3.5 | 7.0 | 0.00 | 0.00 | 0.00 | 61 | 1006.4 |
| 20260505015423 | 71 | 196 | 1.7 | 5.2 | 0.00 | 0.00 | 0.00 | 61 | 1006.1 |
| 20260505014922 | 71 | 212 | 4.3 | 7.8 | 0.00 | 0.00 | 0.00 | 60 | 1006.1 |
| 20260505014423 | 72 | 235 | 4.3 | 6.1 | 0.00 | 0.00 | 0.00 | 60 | 1006.1 |
| 20260505013922 | 72 | 210 | 3.5 | 5.2 | 0.00 | 0.00 | 0.00 | 60 | 1006.4 |
| 20260505013422 | 72 | 190 | 1.7 | 5.2 | 0.00 | 0.00 | 0.00 | 59 | 1005.8 |
| 20260505012923 | 72 | 210 | 2.6 | 4.3 | 0.00 | 0.00 | 0.00 | 59 | 1006.1 |
| 20260505012423 | 72 | 209 | 0.0 | 5.2 | 0.00 | 0.00 | 0.00 | 59 | 1005.8 |
| 20260505011922 | 72 | 205 | 4.3 | 7.0 | 0.00 | 0.00 | 0.00 | 58 | 1005.8 |
| 20260505011422 | 72 | 213 | 7.0 | 9.6 | 0.00 | 0.00 | 0.00 | 58 | 1005.8 |
| 20260505010922 | 72 | 183 | 4.3 | 7.8 | 0.00 | 0.00 | 0.00 | 58 | 1005.4 |
| 20260505010422 | 73 | 181 | 2.6 | 5.2 | 0.00 | 0.00 | 0.00 | 58 | 1005.8 |
| 20260505005922 | 73 | 166 | 2.6 | 4.3 | 0.00 | 0.00 | 0.00 | 58 | 1005.8 |
| 20260505005422 | 73 | 173 | 0.9 | 4.3 | 0.00 | 0.00 | 0.00 | 58 | 1005.4 |
| 20260505004923 | 73 | 181 | 2.6 | 3.5 | 0.00 | 0.00 | 0.00 | 58 | 1005.4 |
| 20260505004422 | 73 | 212 | 3.5 | 5.2 | 0.00 | 0.00 | 0.00 | 57 | 1005.4 |
| 20260505003922 | 73 | 203 | 2.6 | 4.3 | 0.00 | 0.00 | 0.00 | 57 | 1005.1 |
| 20260505003423 | 74 | 189 | 3.5 | 3.5 | 0.00 | 0.00 | 0.00 | 56 | 1005.1 |
| 20260505002922 | 74 | 160 | 2.6 | 5.2 | 0.00 | 0.00 | 0.00 | 56 | 1005.1 |
| 20260505002422 | 74 | 197 | 0.9 | 3.5 | 0.00 | 0.00 | 0.00 | 56 | 1005.1 |
| 20260505001922 | 74 | 217 | 1.7 | 5.2 | 0.00 | 0.00 | 0.00 | 55 | 1005.1 |
| 20260505001422 | 74 | 180 | 2.6 | 5.2 | 0.00 | 0.00 | 0.00 | 55 | 1005.1 |
| 20260505000923 | 74 | 226 | 3.5 | 7.8 | 0.00 | 0.00 | 0.00 | 55 | 1005.1 |
| 20260505000422 | 75 | 215 | 4.3 | 6.1 | 0.00 | 0.00 | 0.00 | 54 | 1004.7 |
| 20260504235922 | 75 | 149 | 2.6 | 4.3 | 0.00 | 0.00 | 0.00 | 54 | 1005.1 |
| 20260504235422 | 75 | 149 | 1.7 | 4.3 | 0.00 | 0.00 | 0.00 | 52 | 1004.7 |
| 20260504234922 | 75 | 170 | 2.6 | 5.2 | 0.00 | 0.00 | 0.00 | 52 | 1005.1 |
| 20260504234422 | 76 | 221 | 2.6 | 7.8 | 0.00 | 0.00 | 0.00 | 51 | 1005.1 |
| 20260504233922 | 76 | 175 | 3.5 | 6.1 | 0.00 | 0.00 | 0.00 | 50 | 1004.7 |
| 20260504233003 | 77 | 213 | 5.2 | 7.0 | 0.00 | 0.00 | 0.00 | 49 | 1004.7 |
| 20260504232422 | 77 | 222 | 7.0 | 10.4 | 0.00 | 0.00 | 0.00 | 48 | 1004.7 |
| 20260504231923 | 77 | 183 | 5.2 | 7.8 | 0.00 | 0.00 | 0.00 | 49 | 1005.1 |
| 20260504231423 | 78 | 197 | 7.0 | 9.6 | 0.00 | 0.00 | 0.00 | 48 | 1004.4 |